Weather History for Tacoma, WA

Change the Weather History Date:

Sunday, September 1, 2013

  Actual Average Record
Temperature  
Mean Temperature 66 °F -  
Max Temperature 81 °F 72 °F 91 °F (1987)
Min Temperature 53 °F 49 °F 38 °F (1973)
Cooling Degree Days 2    
Growing Degree Days 16 (Base 50)    
Moisture  
Dew Point 56 °F    
Average Humidity 72    
Maximum Humidity 99    
Minimum Humidity 46    
Precipitation  
Precipitation 0.00 in - - ()
Sea Level Pressure  
Sea Level Pressure 29.88 in    
Wind  
Wind Speed 3 mph (WSW)    
Max Wind Speed 13 mph    
Max Gust Speed -    
Visibility 10 miles    
Events      
Averages and records for this station are not official NWS values.
T = Trace of Precipitation, MM = Missing Value Source: NWS Daily Summary

Daily Weather History Graph

Daily Weather History Graph

Search for Another Location

Airport:

Trip Planner

Search our weather history database for the weather conditions in past years. The results will help you decide how hot, cold, wet, or windy it might be!

Date:

Astronomy

Sep. 01, 2013 Rise Set
Actual Time 6:29 AM PDT 7:49 PM PDT
Civil Twilight 5:57 AM PDT 8:20 PM PDT
Nautical Twilight 5:19 AM PDT 8:58 PM PDT
Astronomical Twilight 4:38 AM PDT 9:39 PM PDT
Moon 2:47 AM PDT (9/1) 5:37 PM PDT (9/1)
Length of Visible Light 14h 22m
Length of Day
13h 19m
Waning Crescent, 13% of the Moon is Illuminated
Sep 1
Waning Crescent
Sep 5
New
Sep 12
First Quarter
Sep 19
Full
Sep 26
Last Quarter

Hourly Weather History & Observations

Time (PDT) Temp. Heat Index Dew Point Humidity Pressure Visibility Wind Dir Wind Speed Gust Speed Precip Events Conditions
12:58 AM 58.8 °F - 54.5 °F 86% 29.88 in 10.0 mi Calm Calm - N/A   Clear
1:58 AM 56.8 °F - 54.3 °F 91% 29.89 in 10.0 mi South 3.5 mph - N/A   Clear
2:58 AM 55.9 °F - 54.3 °F 94% 29.89 in 10.0 mi South 4.6 mph - N/A   Clear
3:58 AM 56.7 °F - 55.4 °F 96% 29.89 in 10.0 mi East 2.3 mph - N/A   Clear
4:58 AM 55.2 °F - 54.3 °F 97% 29.90 in 10.0 mi SSE 3.5 mph - N/A   Clear
5:58 AM 53.4 °F - 52.9 °F 98% 29.90 in 10.0 mi South 1.2 mph - N/A   Clear
6:58 AM 54.3 °F - 54.0 °F 99% 29.91 in 10.0 mi Calm Calm - N/A   Scattered Clouds
7:58 AM 60.6 °F - 57.7 °F 90% 29.92 in 10.0 mi Variable 3.5 mph - N/A   Mostly Cloudy
8:03 AM 60.8 °F - 57.2 °F 88% 29.91 in 10.0 mi Variable 2.3 mph - N/A   Overcast
8:18 AM 60.8 °F - 57.2 °F 88% 29.91 in 10.0 mi Variable 1.2 mph - N/A   Scattered Clouds
8:58 AM 62.6 °F - 57.2 °F 82% 29.92 in 10.0 mi Calm Calm - N/A   Clear
9:58 AM 66.4 °F - 57.4 °F 73% 29.91 in 10.0 mi Variable 2.3 mph - N/A   Clear
10:58 AM 69.6 °F - 56.8 °F 64% 29.89 in 10.0 mi Variable 2.3 mph - N/A   Clear
11:58 AM 72.9 °F - 57.7 °F 59% 29.88 in 10.0 mi Variable 3.5 mph - N/A   Clear
12:58 PM 74.7 °F - 57.7 °F 55% 29.88 in 10.0 mi Variable 3.5 mph - N/A   Mostly Cloudy
1:58 PM 77.5 °F - 58.8 °F 52% 29.86 in 10.0 mi NW 8.1 mph - N/A   Scattered Clouds
2:58 PM 79.7 °F - 58.6 °F 48% 29.84 in 10.0 mi Variable 2.3 mph - N/A   Clear
3:58 PM 80.4 °F 81.0 °F 58.8 °F 48% 29.83 in 10.0 mi NW 5.8 mph - N/A   Clear
4:58 PM 80.4 °F 80.8 °F 58.1 °F 46% 29.83 in 10.0 mi WNW 10.4 mph - N/A   Clear
5:58 PM 79.5 °F - 57.6 °F 47% 29.83 in 10.0 mi West 10.4 mph - N/A   Clear
6:58 PM 77.0 °F - 57.7 °F 51% 29.84 in 10.0 mi West 12.7 mph - N/A   Mostly Cloudy
7:58 PM 72.9 °F - 54.1 °F 52% 29.86 in 10.0 mi West 4.6 mph - N/A   Clear
8:58 PM 70.9 °F - 54.9 °F 57% 29.88 in 10.0 mi West 6.9 mph - N/A   Partly Cloudy
9:58 PM 68.4 °F - 54.5 °F 61% 29.88 in 10.0 mi WNW 2.3 mph - N/A   Clear
10:58 PM 65.8 °F - 54.9 °F 68% 29.89 in 10.0 mi South 2.3 mph - N/A   Mostly Cloudy
11:58 PM 61.3 °F - 54.9 °F 79% 29.90 in 10.0 mi SSE 3.5 mph - N/A   Scattered Clouds